Weather History for Mandan, ND

Change the Weather History Date:

Sunday, November 10, 2013

  Actual Average (KBIS) Record (KBIS)
Temperature  
Mean Temperature 29 °F 32 °F  
Max Temperature 41 °F 43 °F 71 °F (1887)
Min Temperature 17 °F 22 °F -10 °F (1911)
Degree Days  
Heating Degree Days 36 33  
Month to date heating degree days 304  
Since 1 July heating degree days 1216  
Cooling Degree Days 0 0  
Month to date cooling degree days 0  
Year to date cooling degree days 520  
Moisture  
Dew Point 17 °F    
Average Humidity 67    
Maximum Humidity 93    
Minimum Humidity 36    
Precipitation  
Precipitation 0.00 in 0.03 in 0.78 in (2012)
Month to date precipitation 0.29  
Year to date precipitation 16.94  
Snow  
Snow 0.00 in 0.30 in 9.10 in (2012)
Month to date snowfall 2.5  
Since 1 July snowfall 4.9  
Since 1 September snowfall 4.9  
Snow Depth -    
Sea Level Pressure  
Sea Level Pressure 30.21 in    
Wind  
Wind Speed 12 mph (West)    
Max Wind Speed 24 mph    
Max Gust Speed 30 mph    
Visibility 10 miles    
Events Rain , Snow    
T = Trace of Precipitation, MM = Missing Value Source: NWS Daily Summary

Daily Weather History Graph

Daily Weather History Graph

Search for Another Location

Airport:

Trip Planner

Search our weather history database for the weather conditions in past years. The results will help you decide how hot, cold, wet, or windy it might be!

Date:

Astronomy

Nov. 10, 2013 Rise Set
Actual Time 7:39 AM CST 5:15 PM CST
Civil Twilight 7:06 AM CST 5:47 PM CST
Nautical Twilight 6:30 AM CST 6:24 PM CST
Astronomical Twilight 5:54 AM CST 6:59 PM CST
Moon 1:45 PM CST (11/10) No Moon Set
Length of Visible Light 10h 40m
Length of Day
9h 35m
First Quarter, 56% of the Moon is Illuminated
Nov 10
First Quarter
Nov 17
Full
Nov 25
Last Quarter
Dec 2
New
Dec 9
First Quarter

Hourly Weather History & Observations

Time (CST) Temp. Windchill Dew Point Humidity Pressure Visibility Wind Dir Wind Speed Gust Speed Precip Events Conditions
12:15 AM 23.0 °F 17.0 °F 19.4 °F 86% 30.27 in 10.0 mi South 4.6 mph - N/A   Clear
12:35 AM 21.2 °F 11.7 °F 17.6 °F 86% 30.27 in 10.0 mi SSW 8.1 mph - N/A   Clear
12:55 AM 19.4 °F 10.4 °F 17.6 °F 93% 30.26 in 10.0 mi SSW 6.9 mph - N/A   Clear
1:15 AM 21.2 °F 9.5 °F 17.6 °F 86% 30.26 in 10.0 mi SSW 11.5 mph - N/A   Clear
1:35 AM 23.0 °F 13.1 °F 19.4 °F 86% 30.25 in 10.0 mi SW 9.2 mph - N/A   Clear
1:55 AM 23.0 °F 12.4 °F 19.4 °F 86% 30.25 in 10.0 mi SSW 10.4 mph - N/A   Clear
2:15 AM 23.0 °F 13.1 °F 19.4 °F 86% 30.24 in 10.0 mi SSW 9.2 mph - N/A   Clear
2:35 AM 23.0 °F 13.9 °F 19.4 °F 86% 30.24 in 10.0 mi South 8.1 mph - N/A   Clear
2:55 AM 23.0 °F 13.9 °F 19.4 °F 86% 30.23 in 10.0 mi SSW 8.1 mph - N/A   Clear
3:15 AM 23.0 °F 13.9 °F 19.4 °F 86% 30.23 in 10.0 mi SSW 8.1 mph - N/A   Clear
3:35 AM 23.0 °F 13.9 °F 19.4 °F 86% 30.22 in 10.0 mi South 8.1 mph - N/A   Clear
3:55 AM 24.8 °F 14.6 °F 19.4 °F 80% 30.23 in 10.0 mi SSW 10.4 mph - N/A   Clear
4:15 AM 24.8 °F 14.0 °F 21.2 °F 86% 30.22 in 10.0 mi SSW 11.5 mph - N/A   Clear
4:35 AM 24.8 °F 15.3 °F 21.2 °F 86% 30.22 in 10.0 mi SSW 9.2 mph - N/A   Clear
4:55 AM 24.8 °F 16.9 °F 23.0 °F 93% 30.21 in 10.0 mi SSW 6.9 mph - N/A   Clear
5:15 AM 24.8 °F 15.3 °F 23.0 °F 93% 30.21 in 10.0 mi South 9.2 mph - N/A   Clear
5:35 AM 24.8 °F 19.1 °F 23.0 °F 93% 30.20 in 10.0 mi South 4.6 mph - N/A   Clear
5:55 AM 26.6 °F 17.5 °F 23.0 °F 86% 30.19 in 10.0 mi SSW 9.2 mph - N/A   Scattered Clouds
6:15 AM 26.6 °F 16.2 °F 23.0 °F 86% 30.18 in 10.0 mi SSW 11.5 mph - N/A   Partly Cloudy
6:35 AM 28.4 °F 20.4 °F 24.8 °F 86% 30.18 in 10.0 mi South 8.1 mph - N/A   Scattered Clouds
6:55 AM 28.4 °F 18.5 °F 24.8 °F 86% 30.17 in 10.0 mi South 11.5 mph - N/A   Mostly Cloudy
7:15 AM 28.4 °F 17.5 °F 24.8 °F 86% 30.17 in 10.0 mi South 13.8 mph 18.4 mph N/A   Scattered Clouds
7:35 AM 28.4 °F 18.5 °F 24.8 °F 86% 30.17 in 10.0 mi South 11.5 mph - N/A   Clear
7:55 AM 28.4 °F 19.7 °F 24.8 °F 86% 30.16 in 10.0 mi South 9.2 mph - N/A   Clear
8:15 AM 28.4 °F 20.4 °F 24.8 °F 86% 30.15 in 10.0 mi South 8.1 mph - N/A   Clear
8:35 AM 28.4 °F 19.7 °F 24.8 °F 86% 30.15 in 10.0 mi South 9.2 mph - N/A   Mostly Cloudy
8:55 AM 32.0 °F 23.0 °F 24.8 °F 75% 30.15 in 10.0 mi South 11.5 mph - N/A   Overcast
9:15 AM 32.0 °F 22.5 °F 26.6 °F 80% 30.14 in 10.0 mi South 12.7 mph - N/A   Overcast
9:35 AM 32.0 °F 24.2 °F 26.6 °F 80% 30.14 in 10.0 mi South 9.2 mph - N/A   Overcast
9:55 AM 32.0 °F 24.8 °F 26.6 °F 80% 30.14 in 10.0 mi South 8.1 mph - N/A   Overcast
10:15 AM 33.8 °F 24.8 °F 26.6 °F 75% 30.12 in 10.0 mi South 12.7 mph - N/A   Overcast
10:35 AM 35.6 °F 27.1 °F 26.6 °F 70% 30.12 in 10.0 mi SSW 12.7 mph - N/A   Overcast
10:55 AM 35.6 °F 28.0 °F 26.6 °F 70% 30.12 in 10.0 mi SSW 10.4 mph - N/A   Mostly Cloudy
11:15 AM 37.4 °F 29.8 °F 26.6 °F 65% 30.11 in 10.0 mi SW 11.5 mph - N/A   Mostly Cloudy
11:35 AM 37.4 °F 30.3 °F 26.6 °F 65% 30.11 in 10.0 mi SW 10.4 mph - N/A   Mostly Cloudy
11:55 AM 39.2 °F 33.6 °F 26.6 °F 61% 30.11 in 10.0 mi WSW 8.1 mph - N/A   Mostly Cloudy
12:15 PM 39.2 °F 32.0 °F 26.6 °F 61% 30.11 in 10.0 mi West 11.5 mph - N/A   Overcast
12:35 PM 39.2 °F 31.6 °F 28.4 °F 65% 30.11 in 10.0 mi WNW 12.7 mph - N/A   Overcast
12:55 PM 39.2 °F 32.0 °F 26.6 °F 61% 30.10 in 10.0 mi NW 11.5 mph - N/A   Overcast
1:15 PM 41.0 °F 32.2 °F 26.6 °F 57% 30.10 in 10.0 mi NNW 18.4 mph - N/A   Overcast
1:35 PM 39.2 °F 29.3 °F 26.6 °F 61% 30.11 in 10.0 mi NNW 20.7 mph 25.3 mph N/A   Overcast
1:55 PM 37.4 °F 27.5 °F 26.6 °F 65% 30.12 in 10.0 mi North 18.4 mph 24.2 mph N/A   Overcast
2:15 PM 37.4 °F 26.9 °F 26.6 °F 65% 30.13 in 10.0 mi North 20.7 mph 26.5 mph N/A   Overcast
2:35 PM 37.4 °F 26.9 °F 26.6 °F 65% 30.13 in 10.0 mi North 20.7 mph - N/A   Overcast
2:55 PM 35.6 °F 24.8 °F 26.6 °F 70% 30.14 in 10.0 mi North 19.6 mph 23.0 mph N/A   Overcast
3:15 PM 32.0 °F 20.1 °F 24.8 °F 75% 30.16 in 10.0 mi NNE 19.6 mph 25.3 mph N/A   Overcast
3:35 PM 32.0 °F 20.5 °F 19.4 °F 60% 30.17 in 10.0 mi North 18.4 mph 25.3 mph N/A   Overcast
3:55 PM 32.0 °F 19.5 °F 17.6 °F 55% 30.19 in 10.0 mi North 21.9 mph 26.5 mph N/A   Overcast
4:15 PM 28.4 °F 15.8 °F 17.6 °F 64% 30.18 in 10.0 mi North 18.4 mph 25.3 mph N/A   Overcast
4:35 PM 28.4 °F 14.7 °F 14.0 °F 55% 30.20 in 10.0 mi North 21.9 mph 26.5 mph N/A   Overcast
4:55 PM 28.4 °F 15.4 °F 10.4 °F 47% 30.21 in 10.0 mi North 19.6 mph 24.2 mph N/A   Overcast
5:15 PM 26.6 °F 13.4 °F 12.2 °F 55% 30.22 in 10.0 mi North 18.4 mph 23.0 mph N/A   Overcast
5:35 PM 24.8 °F 10.0 °F 6.8 °F 46% 30.24 in 10.0 mi North 21.9 mph - N/A   Overcast
5:55 PM 24.8 °F 9.6 °F 5.0 °F 43% 30.23 in 10.0 mi North 23.0 mph 28.8 mph N/A   Overcast
6:15 PM 24.8 °F 9.3 °F 5.0 °F 43% 30.25 in 10.0 mi North 24.2 mph 29.9 mph N/A   Overcast
6:35 PM 24.8 °F 10.0 °F 1.4 °F 36% 30.26 in 10.0 mi North 21.9 mph - N/A   Mostly Cloudy
6:55 PM 23.0 °F 8.3 °F -0.4 °F 36% 30.26 in 10.0 mi North 19.6 mph 28.8 mph N/A   Overcast
7:15 PM 23.0 °F 7.6 °F 1.4 °F 39% 30.27 in 10.0 mi North 21.9 mph - N/A   Overcast
7:35 PM 23.0 °F 6.9 °F -0.4 °F 36% 30.27 in 10.0 mi North 24.2 mph 27.6 mph N/A   Overcast
7:55 PM 23.0 °F 10.1 °F -0.4 °F 36% 30.29 in 10.0 mi North 15.0 mph 26.5 mph N/A   Overcast
8:15 PM 23.0 °F 7.6 °F 1.4 °F 39% 30.29 in 10.0 mi North 21.9 mph - N/A   Overcast
8:35 PM 21.2 °F 5.6 °F 3.2 °F 46% 30.29 in 10.0 mi North 20.7 mph 25.3 mph N/A Rain Light Freezing Rain
8:55 PM 19.4 °F 4.1 °F 1.4 °F 46% 30.31 in 10.0 mi North 18.4 mph 25.3 mph N/A Snow Light Snow
9:15 PM 19.4 °F 4.5 °F 1.4 °F 46% 30.33 in 10.0 mi NNE 17.3 mph - N/A Rain Light Freezing Rain
9:35 PM 19.4 °F 6.0 °F 5.0 °F 54% 30.33 in 8.0 mi North 13.8 mph - N/A Snow Light Snow
9:55 PM 19.4 °F 4.5 °F -0.4 °F 42% 30.34 in 10.0 mi North 17.3 mph 21.9 mph N/A   Overcast
10:15 PM 19.4 °F 5.5 °F -0.4 °F 42% 30.35 in 10.0 mi North 15.0 mph 20.7 mph N/A   Overcast
10:35 PM 19.4 °F 5.5 °F -0.4 °F 42% 30.35 in 10.0 mi North 15.0 mph 21.9 mph N/A   Overcast
10:55 PM 19.4 °F 5.0 °F -4.0 °F 36% 30.36 in 10.0 mi NNE 16.1 mph - N/A   Mostly Cloudy
11:15 PM 19.4 °F 6.0 °F -2.2 °F 39% 30.36 in 10.0 mi North 13.8 mph - N/A   Mostly Cloudy
11:35 PM 17.6 °F 3.7 °F -2.2 °F 42% 30.36 in 10.0 mi North 13.8 mph - N/A   Overcast
11:55 PM 17.6 °F 1.7 °F -2.2 °F 42% 30.37 in 10.0 mi North 18.4 mph - N/A   Overcast